SB KEPS @ AMSAT $ORB08227.N 2Line Orbital Elements 08227.AMSAT
HR AMSAT ORBITAL ELEMENTS FOR AMATEUR SATELLITES IN NASA FORMAT FROM WA5QGD FORT WORTH,TX August 14, 2008 Send Subscribe/unsubscribe to KEPS at http://www.amsat.org/mailman/listinfo/keps BID: ORB08227.N
DECODE 2-LINE ELSETS WITH THE FOLLOWING KEY: 1 AAAAAU 00 0 0 BBBBB.BBBBBBBB .CCCCCCCC 00000-0 00000-0 0 DDDZ 2 AAAAA EEE.EEEE FFF.FFFF GGGGGGG HHH.HHHH III.IIII JJ.JJJJJJJJKKKKKZ KEY: A-CATALOGNUM B-EPOCHTIME C-DECAY D-ELSETNUM E-INCLINATION F-RAAN G-ECCENTRICITY H-ARGPERIGEE I-MNANOM J-MNMOTION K-ORBITNUM Z-CHECKSUM
TO ALL RADIO AMATEURS BT
AO-07 1 07530U 74089B 08226.67446543 -.00000027 00000-0 10000-3 0 02526 2 07530 101.4629 256.2418 0012084 148.6518 211.5271 12.53573855544181 AO-10 1 14129U 83058B 08225.05533752 -.00000123 00000-0 10000-3 0 05434 2 14129 026.0194 201.0008 5970800 147.8941 269.2176 02.05869232189250 UO-11 1 14781U 84021B 08226.93675454 .00000093 00000-0 19652-4 0 07455 2 14781 098.1507 261.8221 0008059 245.4952 114.5424 14.79657767312396 RS-15 1 23439U 94085A 08226.92945839 -.00000039 00000-0 10000-3 0 01533 2 23439 064.8156 041.6724 0147044 111.7783 249.8860 11.27552823561471 FO-29 1 24278U 96046B 08226.80558377 -.00000027 00000-0 64718-5 0 08595 2 24278 098.5820 135.5463 0351407 066.4539 297.3101 13.52939341592185 SO-33 1 25509U 98061B 08226.71677214 .00000305 00000-0 47492-4 0 2629 2 25509 031.4330 351.0648 0354933 170.3189 190.4800 14.28221579511842 AO-40 1 26609U 00072B 08226.12994095 -.00000327 00000-0 10000-3 0 1022 2 26609 007.6761 066.8940 7928342 111.5291 343.0909 01.25585828 35752 VO-52 1 28650U 05017B 08226.68124158 .00000039 00000-0 11618-4 0 00058 2 28650 097.7857 291.7019 0026197 315.0740 044.8375 14.81488789177116 PO-63 1 29712U 07001D 08227.83251513 .00000403 00000-0 59747-4 0 7076 2 29712 097.8716 284.9082 0013940 186.4096 173.6930 14.80237341 86146 AO-16 1 20439U 90005D 08226.93362359 .00000004 00000-0 16641-4 0 03956 2 20439 098.2347 204.0577 0011407 010.1189 350.0225 14.31800192969180 LO-19 1 20442U 90005G 08226.97135997 -.00000016 00000-0 90427-5 0 03207 2 20442 098.2054 212.4532 0012249 007.3111 352.8246 14.32038148969347 AO-27 1 22825U 93061C 08227.79682192 -.00000127 00000-0 -33400-4 0 404 2 22825 098.3880 185.6342 0009360 088.2912 271.9343 14.29244109776144 IO-26 1 22826U 93061D 08226.86073968 -.00000011 00000-0 11904-4 0 7466 2 22826 098.3812 185.6156 0009932 086.5873 273.6453 14.29493807776103 PO-28 1 22829U 93061G 08226.95893770 .00000079 00000-0 46443-4 0 00147 2 22829 098.3687 186.8043 0010659 062.2436 297.9818 14.30195169776384 GO-32 1 25397U 98043D 08226.62167904 .00000122 00000-0 72309-4 0 06721 2 25397 098.3618 258.9379 0002215 083.6375 276.5052 14.23147402524385 NO-44 1 26931U 01043C 08226.79611317 -.00000197 00000-0 -44501-4 0 9517 2 26931 067.0505 136.2482 0007335 265.0565 094.9688 14.29529503358649 SO-50 1 27607U 02058C 08227.52649401 -.00000004 00000-0 21553-4 0 6731 2 27607 064.5572 236.4594 0086475 268.1375 090.9950 14.71373621303551 CO-55 1 27844U 03031E 08226.62839810 .00000012 00000-0 26025-4 0 3724 2 27844 098.7162 234.0986 0009391 316.9024 043.1420 14.20591417265594 CO-57 1 27848U 03031J 08226.56377943 -.00000002 00000-0 19436-4 0 3228 2 27848 098.7167 233.1200 0009599 320.5463 039.5028 14.20399745265559 AO-51 1 28375U 04025K 08226.97455235 -.00000009 00000-0 10158-4 0 01748 2 28375 098.0687 248.2886 0084547 338.3033 021.4584 14.40615363216729 CO-56 1 28941U 06005C 08227.63841835 .00030157 27447-5 21278-3 0 2870 2 28941 098.1119 346.4624 0159081 187.9803 171.8918 15.59187893139143 CP3 1 31128U 07012M 08227.77361702 -.00000046 00000-0 00000 0 0 4060 2 31128 098.0351 288.7239 0103791 153.1628 207.4995 14.51967873 70430 CP4 1 31132U 07012Q 08227.88437958 .00000045 00000-0 20162-4 0 3876 2 31132 098.0388 291.2712 0087056 145.5678 215.1202 14.55135704 70481 NOAA-10 1 16969U 86073A 08227.12648450 -.00000132 00000-0 -35679-4 0 2461 2 16969 098.7215 248.9749 0012620 016.5451 343.6139 14.27365025139705 NOAA-11 1 19531U 88089A 08227.29720347 .00000203 00000-0 12781-3 0 2793 2 19531 098.7969 315.8111 0010778 262.3444 097.6526 14.14875440 26121 NOAA-12 1 21263U 91032A 08227.52862040 .00000026 00000-0 29991-4 0 7939 2 21263 098.7690 229.4796 0011970 320.7935 039.2377 14.25542186896700 MET-3/5 1 21655U 91056A 08226.92981443 .00000051 00000-0 10000-3 0 05286 2 21655 082.5500 063.5847 0012158 227.6783 132.3309 13.17016523817181 MET-2/21 1 22782U 93055A 08226.69930525 .00000062 00000-0 42119-4 0 02240 2 22782 082.5445 065.9494 0023690 126.4532 233.8817 13.83629936755088 OKEAN-4 1 23317U 94066A 08226.76049791 .00000216 00000-0 23865-4 0 06671 2 23317 082.5379 261.3473 0020659 300.2909 059.6252 14.82628632746810 NOAA-14 1 23455U 94089A 08227.36982807 -.00000210 00000-0 -87099-4 0 2648 2 23455 098.9435 299.6367 0009062 345.4229 014.6678 14.13745862702571 SICH-1 1 23657U 95046A 08226.75651020 .00000259 00000-0 29937-4 0 4648 2 23657 082.5273 042.3383 0022408 292.9238 066.9593 14.81597556698749 NOAA-15 1 25338U 98030A 08227.36695852 .00000210 00000-0 10864-3 0 5838 2 25338 098.5577 217.7560 0009737 228.6226 131.4127 14.24721089533082 RESURS 1 25394U 98043A 08226.71943283 -.00000009 00000-0 14017-4 0 9977 2 25394 098.3831 268.0454 0002430 043.6081 316.5290 14.24166998524633 FENGYUN1 1 25730U 99025A 08226.98461748 .00000585 00000-0 36975-3 0 05804 2 25730 098.7240 200.8150 0021760 008.6263 351.5277 14.07750933477092 OKEAN-0 1 25860U 99039A 08227.58321475 .00000035 00000-0 12570-4 0 4458 2 25860 097.7544 215.5583 0001941 080.3027 279.8393 14.73532024487992 NOAA-16 1 26536U 00055A 08227.36362649 .00000022 00000-0 37286-4 0 557 2 26536 099.1603 217.8257 0011376 064.8139 295.4202 14.12494174406981 NOAA-17 1 27453U 02032A 08227.37249474 .00000002 00000-0 19412-4 0 496 2 27453 098.5303 290.3019 0010801 300.9449 059.0702 14.23994276319085 NOAA-18 1 28654U 05018A 08227.40538163 .00000190 00000-0 12969-3 0 5411 2 28654 098.8673 167.6243 0014871 145.9009 214.3132 14.11184249166684 HUBBLE 1 20580U 90037B 08226.61608713 .00000279 00000-0 86842-5 0 02101 2 20580 028.4696 308.6497 0003639 269.8155 090.2018 15.00398783803618 PO-34 1 25520U 98064B 08227.87159563 .00000323 00000-0 61277-5 0 586 2 25520 028.4586 145.8859 0005604 203.7885 156.2447 15.17217913542082 ISS 1 25544U 98067A 08227.51110226 .00011863 00000-0 97258-4 0 554 2 25544 051.6448 076.8280 0008059 018.2040 075.2824 15.70962716557715 CO-58 1 28895U 05043F 08226.90702466 .00000173 00000-0 45791-4 0 00965 2 28895 098.0930 119.5328 0016764 227.0868 132.8934 14.59689284148907 NCUBE2 1 28897U 05043H 08226.65916135 .00000052 00000-0 20412-4 0 06267 2 28897 098.0881 119.2160 0016220 229.6863 130.2923 14.59860691141158 FALCON 1 30776U 07006E 08227.89709120 .00000255 00000-0 21586-4 0 3757 2 30776 035.4329 157.4195 0000335 193.1661 166.9047 15.03033335 78982 MAST 1 31126U 07012K 08227.75822458 -.00000002 00000-0 10155-4 0 3985 2 31126 098.0342 289.8404 0095663 149.8789 210.7942 14.53439575 70526 CAPE1 1 31130U 07012P 08226.94079526 -.00000005 00000-0 94672-5 0 03924 2 31130 098.0349 287.9347 0104223 155.5204 205.0988 14.51984357070104 CUTE1-7 1 32785U 08021C 08227.20889243 .00000242 00000-0 37811-4 0 1298 2 32785 097.9890 286.9761 0014357 312.2338 047.7652 14.81383393 15998 COMPASS 1 32787U 08021E 08227.20494650 .00000264 00000-0 40599-4 0 1194 2 32787 097.9841 286.9205 0015244 313.2211 046.7724 14.81445934 15995 AAUSAT2 1 32788U 08021F 08227.87241271 .00000201 00000-0 32405-4 0 1207 2 32788 097.9850 287.6002 0014274 313.4718 046.5350 14.81555440 16094 DO-64 1 32789U 08021G 08227.88133915 .00000459 00000-0 65399-4 0 1296 2 32789 097.9878 287.6333 0014887 309.9954 049.9948 14.81449601 16095 SEEDS 1 32791U 08021J 08227.89069015 .00000133 00000-0 23908-4 0 1164 2 32791 097.9869 287.6183 0015368 308.1204 051.8618 14.81302254 16060 CANX-2 1 32797U 08021L 08226.10209254 .00001673 00000-0 21762-3 0 00630 2 32797 097.9942 285.9583 0015611 319.8527 040.1563 14.81933659014518 RS-30 1 32953U 08025A 08226.71877533 .00000010 00000-0 00000-0 0 00820 2 32953 082.4983 087.8157 0019423 126.6198 233.6668 12.42996914010198 /EX
participants (1)
-
Ray Hoad